Content
SEND FEEDBACK

Daily
Averages
Monthly
Summary
French Polynesia

PAPEETE, FRENCH POLYNESIA


Home > Oceania > French Polynesia
Elevation: 7 feet     Latitude: 17 33S     Longitude: 149 36W

WEATHER
 
SELECT A DAY
Number of Records: 208,679;   Date Range: 6/30/96 - 8/10/14
 
SHARE

PRINT THIS DATA

[ ← Previous Day ]
WEATHER ALMANAC - SEPTEMBER 21, 2013
[ Next Day → ]
[ °C ]   °F
Weather ElementAverageHighLow
Temperature78.5 °F84.2 °F (10:00 am)73 °F (2:00 am)
Dewpoint67.4 °F71.6 °F (7:30 pm)59 °F (9:30 am)
Humidity68.6 %88 % (3:30 am)41 % (11:00 am)
Barometer29.96 in30.01 in (12:30 am)29.92 in (2:00 pm)
Wind Speed9 mph24.2 mph (8:30 am)
Wind Gust31.1 mph (3:30 pm)
Weather ElementAverage
Visibility7.4 mi
Wind DirectionESE (125.9 °)

Weather ElementTotal
Precipitation---
Cooling Degree Days13.6 (Base 65)
Growing Degree Days28.6 (Base 50)
Averaged from 54 records on September 21, 2013
WEATHER CONDITIONS BREAKOUT
WIND DIRECTION BREAKOUT
WEATHER BY HOUR - SEPTEMBER 21, 2013
[ °C ]   °F
Local TimeTemperatureDewpointHumidityBarometerVisibilityWind DirectionWind SpeedGust SpeedPrecipitationEventsConditions
12:30 AM73.4 °F68.0 °F83 %30.01 in6.2 miSSE (150°)2.3 mphMostly Cloudy
1:00 AM73.4 °F68.0 °F83 %30.01 in6.2 miEast (80°)4.6 mphMostly Cloudy
2:00 AM73.0 °F68.0 °F81 %29.99 in9.0 miEast (80°)5.8 mphOvercast
2:00 AM73.4 °F68.0 °F83 %29.98 in6.2 miEast (80°)5.8 mphMostly Cloudy
2:30 AM73.4 °F68.0 °F83 %29.98 in6.2 miEast (80°)10.4 mphOvercast
3:00 AM73.4 °F68.0 °F83 %29.98 in6.2 miESE (120°)3.5 mphRainLight Rain
3:30 AM73.4 °F69.8 °F88 %29.95 in6.2 miVariable3.5 mphRainLight Rain
4:00 AM75.2 °F69.8 °F83 %29.95 in6.2 miWSW (240°)6.9 mph
4:30 AM73.4 °F69.8 °F88 %29.95 in6.2 miSouth (180°)8.1 mphRainLight Rain
5:00 AM74.0 °F70.0 °F83 %29.97 in37.0 miSSE (150°)11.2 mphClear
5:00 AM75.2 °F69.8 °F83 %29.95 in6.2 miSSE (150°)5.8 mph
5:30 AM75.2 °F69.8 °F83 %29.95 in6.2 miNE (50°)8.1 mphOvercast
6:00 AM73.4 °F69.8 °F88 %29.95 in6.2 miENE (70°)5.8 mphMostly Cloudy
6:30 AM75.2 °F68.0 °F78 %29.95 in6.2 miEast (80°)6.9 mphMostly Cloudy
7:00 AM75.2 °F68.0 °F78 %29.98 in6.2 miSSE (150°)8.1 mphOvercast
7:30 AM77.0 °F68.0 °F74 %29.98 in6.2 miWSW (250°)3.5 mphMostly Cloudy
8:00 AM79.0 °F62.0 °F45 %29.99 in9.0 miESE (110°)13.4 mphRainLight Rain
8:00 AM78.8 °F60.8 °F54 %29.98 in6.2 miVariable6.9 mph18.4 mphMostly Cloudy
8:30 AM78.8 °F62.6 °F57 %29.95 in6.2 miNE (50°)24.2 mphMostly Cloudy
9:00 AM78.8 °F62.6 °F57 %29.95 in6.2 miNE (50°)24.2 mphMostly Cloudy
9:30 AM82.4 °F59.0 °F45 %29.95 in6.2 miEast (80°)17.3 mphMostly Cloudy
10:00 AM84.2 °F60.8 °F45 %29.98 in6.2 miENE (70°)13.8 mphMostly Cloudy
10:30 AM82.4 °F66.2 °F58 %29.98 in6.2 miSW (230°)9.2 mphMostly Cloudy
11:00 AM84.0 °F64.0 °F41 %29.98 in12.0 miWSW (250°)5.8 mphPartly Cloudy
11:00 AM84.2 °F64.4 °F51 %29.98 in6.2 miWSW (250°)5.8 mphMostly Cloudy
11:30 AM82.4 °F62.6 °F51 %29.98 in6.2 miNNE (30°)10.4 mphOvercast
12:00 PM80.6 °F64.4 °F58 %29.98 in6.2 miNE (50°)12.7 mphMostly Cloudy
12:30 PM80.6 °F62.6 °F54 %29.98 in6.2 miENE (60°)12.7 mphMostly Cloudy
1:00 PM82.4 °F64.4 °F54 %29.95 in6.2 miNE (50°)15.0 mphMostly Cloudy
1:30 PM82.4 °F68.0 °F62 %29.95 in6.2 miNE (50°)15.0 mphMostly Cloudy
2:00 PM83.0 °F67.0 °F50 %29.94 in12.0 miNE (40°)13.8 mphScattered Clouds
2:00 PM84.2 °F68.0 °F58 %29.92 in6.2 miNE (40°)13.8 mphMostly Cloudy
2:30 PM84.2 °F66.2 °F55 %29.92 in6.2 miNE (40°)11.5 mphMostly Cloudy
3:00 PM84.2 °F68.0 °F58 %29.92 in6.2 miNE (40°)12.7 mphMostly Cloudy
3:30 PM82.4 °F68.0 °F62 %29.92 in6.2 miENE (60°)15.0 mph31.1 mphScattered Clouds
4:00 PM82.4 °F66.2 °F58 %29.92 in6.2 miENE (70°)13.8 mphMostly Cloudy
4:30 PM82.4 °F64.4 °F54 %29.92 in6.2 miSouth (190°)12.7 mphMostly Cloudy
5:00 PM81.0 °F67.0 °F54 %29.94 in12.0 miSouth (180°)12.7 mphScattered Clouds
5:00 PM80.6 °F68.0 °F65 %29.92 in6.2 miSouth (180°)12.7 mphMostly Cloudy
5:30 PM80.6 °F69.8 °F70 %29.95 in6.2 miSSW (200°)11.5 mphMostly Cloudy
6:00 PM78.8 °F69.8 °F74 %29.95 in6.2 miSSW (210°)11.5 mphMostly Cloudy
6:30 PM78.8 °F69.8 °F74 %29.95 in6.2 miSW (220°)6.9 mphMostly Cloudy
7:00 PM78.8 °F69.8 °F74 %29.95 in6.2 miWSW (240°)4.6 mphMostly Cloudy
7:30 PM78.8 °F71.6 °F78 %29.95 in6.2 miWSW (240°)4.6 mphScattered Clouds
8:00 PM78.0 °F70.0 °F71 %29.97 in12.0 miWest (260°)5.8 mphScattered Clouds
8:00 PM78.8 °F69.8 °F74 %29.95 in6.2 miWest (260°)5.8 mphScattered Clouds
8:30 PM77.0 °F69.8 °F78 %29.95 in6.2 miVariable2.3 mphMostly Cloudy
9:00 PM77.0 °F69.8 °F78 %29.98 in6.2 miSouth (170°)4.6 mphMostly Cloudy
9:30 PM77.0 °F69.8 °F78 %29.95 in6.2 miSSE (160°)2.3 mphMostly Cloudy
10:00 PM77.0 °F69.8 °F78 %29.98 in6.2 miSSE (160°)6.9 mphMostly Cloudy
10:30 PM77.0 °F69.8 °F78 %29.98 in6.2 miSouth (180°)4.6 mphMostly Cloudy
11:00 PM77.0 °F69.0 °F71 %29.97 in12.0 miSouth (180°)2.2 mphScattered Clouds
11:00 PM77.0 °F69.8 °F78 %29.95 in6.2 miVariable1.2 mphMostly Cloudy
11:30 PM77.0 °F71.6 °F83 %29.95 in6.2 miWSW (240°)8.1 mphMostly Cloudy
Hourly data recorded from NTAA, located miles away from Papeete, French Polynesia







STORIES FROM OUR PARTNERS